Time,TemperatureF,DewpointF,PressureIn,WindDirection,WindDirectionDegrees,WindSpeedMPH,WindSpeedGustMPH,Humidity,HourlyPrecipIn,Conditions,Clouds,dailyrainin,SoftwareType,DateUTC
2013-02-12 00:02:00,18.7,5.9,30.21,SW,215,2.0,4.0,57,0.00,,,0.02,meteohub,2013-02-12 07:02:00,
2013-02-12 00:07:00,18.3,5.7,30.21,NNW,328,6.0,6.0,57,0.00,,,0.00,meteohub,2013-02-12 07:07:00,
2013-02-12 00:12:00,18.1,5.5,30.21,NW,326,4.0,8.0,57,0.00,,,0.00,meteohub,2013-02-12 07:12:00,
2013-02-12 00:17:00,18.0,5.7,30.21,NW,325,2.0,8.0,58,0.00,,,0.00,meteohub,2013-02-12 07:17:00,
2013-02-12 00:22:00,17.8,5.5,30.21,NW,312,3.0,8.0,58,0.00,,,0.00,meteohub,2013-02-12 07:22:00,
2013-02-12 00:27:00,17.4,5.2,30.21,NW,305,2.0,4.0,58,0.00,,,0.00,meteohub,2013-02-12 07:27:00,
2013-02-12 00:32:00,17.2,5.0,30.21,NW,305,0.0,4.0,58,0.00,,,0.00,meteohub,2013-02-12 07:32:00,
2013-02-12 00:37:00,17.2,5.0,30.21,NW,305,2.0,4.0,58,0.00,,,0.00,meteohub,2013-02-12 07:37:00,
2013-02-12 00:42:00,17.1,4.8,30.21,NW,304,2.0,4.0,58,0.00,,,0.00,meteohub,2013-02-12 07:42:00,
2013-02-12 00:47:00,17.1,5.2,30.20,NW,304,0.0,4.0,59,0.00,,,0.00,meteohub,2013-02-12 07:47:00,
2013-02-12 00:52:00,16.9,5.0,30.20,NW,304,0.0,4.0,59,0.00,,,0.00,meteohub,2013-02-12 07:52:00,
2013-02-12 00:57:00,16.7,4.8,30.21,NW,304,1.0,3.0,59,0.00,,,0.00,meteohub,2013-02-12 07:57:00,
2013-02-12 01:02:00,16.5,4.6,30.21,NW,304,1.0,3.0,59,0.00,,,0.00,meteohub,2013-02-12 08:02:00,
2013-02-12 01:07:00,16.3,4.5,30.21,NW,304,3.0,4.0,59,0.00,,,0.00,meteohub,2013-02-12 08:07:00,
2013-02-12 01:12:00,16.2,4.3,30.21,WNW,298,1.0,4.0,59,0.00,,,0.00,meteohub,2013-02-12 08:12:00,
2013-02-12 01:17:00,16.2,4.6,30.21,WNW,297,2.0,4.0,60,0.00,,,0.00,meteohub,2013-02-12 08:17:00,
2013-02-12 01:22:00,16.2,4.3,30.21,WNW,297,1.0,4.0,59,0.00,,,0.00,meteohub,2013-02-12 08:22:00,
2013-02-12 01:27:00,16.2,4.3,30.21,WNW,297,1.0,4.0,59,0.00,,,0.00,meteohub,2013-02-12 08:27:00,
2013-02-12 01:32:00,16.0,4.5,30.21,WNW,297,2.0,4.0,60,0.00,,,0.00,meteohub,2013-02-12 08:32:00,
2013-02-12 01:37:00,15.6,4.3,30.21,WNW,297,0.0,3.0,60,0.00,,,0.00,meteohub,2013-02-12 08:37:00,
2013-02-12 01:42:00,15.6,4.6,30.21,WNW,297,0.0,3.0,61,0.00,,,0.00,meteohub,2013-02-12 08:42:00,
2013-02-12 01:47:00,15.4,4.5,30.22,WNW,297,1.0,2.0,61,0.00,,,0.00,meteohub,2013-02-12 08:47:00,
2013-02-12 01:52:00,15.1,4.5,30.22,WNW,297,1.0,2.0,62,0.00,,,0.00,meteohub,2013-02-12 08:52:00,
2013-02-12 01:57:00,14.9,4.3,30.21,WNW,297,1.0,3.0,62,0.00,,,0.00,meteohub,2013-02-12 08:57:00,
2013-02-12 02:02:00,14.7,4.5,30.21,WNW,297,2.0,3.0,63,0.00,,,0.00,meteohub,2013-02-12 09:02:00,
2013-02-12 02:07:00,14.5,4.3,30.22,WNW,297,1.0,3.0,63,0.00,,,0.00,meteohub,2013-02-12 09:07:00,
2013-02-12 02:12:00,14.4,4.5,30.22,WNW,297,2.0,3.0,64,0.00,,,0.00,meteohub,2013-02-12 09:12:00,
2013-02-12 02:17:00,14.4,4.5,30.22,WNW,297,1.0,3.0,64,0.00,,,0.00,meteohub,2013-02-12 09:17:00,
2013-02-12 02:22:00,14.4,4.1,30.22,WNW,297,2.0,3.0,63,0.00,,,0.00,meteohub,2013-02-12 09:22:00,
2013-02-12 02:27:00,14.2,3.9,30.22,WNW,297,1.0,3.0,63,0.00,,,0.00,meteohub,2013-02-12 09:27:00,
2013-02-12 02:32:00,14.2,3.9,30.21,WNW,297,1.0,3.0,63,0.00,,,0.00,meteohub,2013-02-12 09:32:00,
2013-02-12 02:37:00,14.2,3.9,30.21,WNW,297,2.0,4.0,63,0.00,,,0.00,meteohub,2013-02-12 09:37:00,
2013-02-12 02:42:00,14.0,3.7,30.22,WNW,297,0.0,4.0,63,0.00,,,0.00,meteohub,2013-02-12 09:42:00,
2013-02-12 02:47:00,14.0,3.7,30.21,WNW,297,3.0,4.0,63,0.00,,,0.00,meteohub,2013-02-12 09:47:00,
2013-02-12 02:52:00,13.8,3.9,30.21,WNW,297,1.0,4.0,64,0.00,,,0.00,meteohub,2013-02-12 09:52:00,
2013-02-12 02:57:00,13.8,3.6,30.21,WNW,297,0.0,4.0,63,0.00,,,0.00,meteohub,2013-02-12 09:57:00,
2013-02-12 03:02:00,13.6,3.4,30.21,WNW,297,0.0,4.0,63,0.00,,,0.00,meteohub,2013-02-12 10:02:00,
2013-02-12 03:07:00,13.5,3.6,30.20,WNW,297,0.0,2.0,64,0.00,,,0.00,meteohub,2013-02-12 10:07:00,
2013-02-12 03:12:00,13.5,3.6,30.21,WNW,297,1.0,2.0,64,0.00,,,0.00,meteohub,2013-02-12 10:12:00,
2013-02-12 03:17:00,13.3,3.4,30.20,WNW,297,0.0,3.0,64,0.00,,,0.00,meteohub,2013-02-12 10:17:00,
2013-02-12 03:22:00,13.1,3.2,30.20,WNW,297,2.0,3.0,64,0.00,,,0.00,meteohub,2013-02-12 10:22:00,
2013-02-12 03:27:00,12.9,3.0,30.21,WNW,297,2.0,2.0,64,0.00,,,0.00,meteohub,2013-02-12 10:27:00,
2013-02-12 03:32:00,12.7,2.8,30.21,WNW,297,1.0,2.0,64,0.00,,,0.00,meteohub,2013-02-12 10:32:00,
2013-02-12 03:37:00,12.6,2.7,30.21,WNW,297,0.0,3.0,64,0.00,,,0.00,meteohub,2013-02-12 10:37:00,
2013-02-12 03:42:00,12.4,2.8,30.21,WNW,297,1.0,4.0,65,0.00,,,0.00,meteohub,2013-02-12 10:42:00,
2013-02-12 03:47:00,12.4,2.8,30.22,WNW,297,2.0,4.0,65,0.00,,,0.00,meteohub,2013-02-12 10:47:00,
2013-02-12 03:52:00,12.0,2.5,30.22,WNW,297,0.0,3.0,65,0.00,,,0.00,meteohub,2013-02-12 10:52:00,
2013-02-12 03:57:00,12.0,2.5,30.22,WNW,297,1.0,3.0,65,0.00,,,0.00,meteohub,2013-02-12 10:57:00,
2013-02-12 04:02:00,12.0,2.5,30.22,WNW,297,1.0,3.0,65,0.00,,,0.00,meteohub,2013-02-12 11:02:00,
2013-02-12 04:07:00,12.0,2.5,30.22,WNW,297,2.0,3.0,65,0.00,,,0.00,meteohub,2013-02-12 11:07:00,
2013-02-12 04:12:00,12.0,2.8,30.22,WNW,297,2.0,4.0,66,0.00,,,0.00,meteohub,2013-02-12 11:12:00,
2013-02-12 04:17:00,12.4,2.8,30.22,WNW,297,2.0,4.0,65,0.00,,,0.00,meteohub,2013-02-12 11:17:00,
2013-02-12 04:22:00,12.4,2.8,30.23,WNW,297,3.0,3.0,65,0.00,,,0.00,meteohub,2013-02-12 11:22:00,
2013-02-12 04:27:00,12.4,2.8,30.23,WNW,297,2.0,4.0,65,0.00,,,0.00,meteohub,2013-02-12 11:27:00,
2013-02-12 04:32:00,12.4,2.8,30.23,WNW,297,1.0,4.0,65,0.00,,,0.00,meteohub,2013-02-12 11:32:00,
2013-02-12 04:37:00,12.4,2.5,30.23,WNW,297,3.0,4.0,64,0.00,,,0.00,meteohub,2013-02-12 11:37:00,
2013-02-12 04:42:00,12.4,2.5,30.23,WNW,297,2.0,3.0,64,0.00,,,0.00,meteohub,2013-02-12 11:42:00,
2013-02-12 04:47:00,12.4,2.5,30.23,WNW,297,3.0,4.0,64,0.00,,,0.00,meteohub,2013-02-12 11:47:00,
2013-02-12 04:52:00,12.4,2.5,30.22,WNW,297,1.0,4.0,64,0.00,,,0.00,meteohub,2013-02-12 11:52:00,
2013-02-12 05:02:00,12.4,2.5,30.23,WNW,297,2.0,4.0,64,0.00,,,0.00,meteohub,2013-02-12 12:02:00,
2013-02-12 05:07:00,12.4,2.5,30.24,WNW,297,2.0,4.0,64,0.00,,,0.00,meteohub,2013-02-12 12:07:00,
2013-02-12 05:12:00,12.4,2.1,30.24,WNW,297,1.0,4.0,63,0.00,,,0.00,meteohub,2013-02-12 12:12:00,
2013-02-12 05:17:00,12.4,2.1,30.24,WNW,297,3.0,4.0,63,0.00,,,0.00,meteohub,2013-02-12 12:17:00,
2013-02-12 05:22:00,12.4,2.1,30.24,WNW,297,3.0,4.0,63,0.00,,,0.00,meteohub,2013-02-12 12:22:00,
2013-02-12 05:27:00,12.4,1.8,30.24,WNW,297,3.0,4.0,62,0.00,,,0.00,meteohub,2013-02-12 12:27:00,
2013-02-12 05:32:00,12.4,2.1,30.24,WNW,297,2.0,4.0,63,0.00,,,0.00,meteohub,2013-02-12 12:32:00,
2013-02-12 05:37:00,12.4,2.1,30.24,WNW,297,3.0,3.0,63,0.00,,,0.00,meteohub,2013-02-12 12:37:00,
2013-02-12 05:42:00,12.4,2.1,30.25,WNW,297,2.0,4.0,63,0.00,,,0.00,meteohub,2013-02-12 12:42:00,
2013-02-12 05:47:00,12.6,1.9,30.25,WNW,282,4.0,4.0,62,0.00,,,0.00,meteohub,2013-02-12 12:47:00,
2013-02-12 05:52:00,12.9,1.9,30.25,WNW,282,1.0,4.0,61,0.00,,,0.00,meteohub,2013-02-12 12:52:00,
2013-02-12 05:57:00,12.9,1.9,30.24,West,281,1.0,4.0,61,0.00,,,0.00,meteohub,2013-02-12 12:57:00,
2013-02-12 06:02:00,12.9,1.2,30.24,West,281,1.0,4.0,59,0.00,,,0.00,meteohub,2013-02-12 13:02:00,
2013-02-12 06:07:00,12.7,1.0,30.24,West,281,1.0,4.0,59,0.00,,,0.00,meteohub,2013-02-12 13:07:00,
2013-02-12 06:12:00,12.7,1.0,30.24,West,281,1.0,3.0,59,0.00,,,0.00,meteohub,2013-02-12 13:12:00,
2013-02-12 06:17:00,12.6,0.5,30.23,West,281,3.0,3.0,58,0.00,,,0.00,meteohub,2013-02-12 13:17:00,
2013-02-12 06:22:00,12.6,0.5,30.23,West,277,2.0,3.0,58,0.00,,,0.00,meteohub,2013-02-12 13:22:00,
2013-02-12 06:27:00,12.6,0.1,30.23,West,276,1.0,4.0,57,0.00,,,0.00,meteohub,2013-02-12 13:27:00,
2013-02-12 06:32:00,12.9,0.1,30.23,West,276,0.0,4.0,56,0.00,,,0.00,meteohub,2013-02-12 13:32:00,
2013-02-12 06:37:00,13.1,0.3,30.24,West,276,2.0,4.0,56,0.00,,,0.00,meteohub,2013-02-12 13:37:00,
2013-02-12 06:42:00,12.9,0.5,30.24,West,276,2.0,3.0,57,0.00,,,0.00,meteohub,2013-02-12 13:42:00,
2013-02-12 06:47:00,12.7,0.3,30.23,West,273,3.0,3.0,57,0.00,,,0.00,meteohub,2013-02-12 13:47:00,
2013-02-12 06:52:00,12.9,-0.2,30.23,West,264,3.0,5.0,55,0.00,,,0.00,meteohub,2013-02-12 13:52:00,
2013-02-12 06:57:00,13.6,-1.1,30.23,SW,232,5.0,5.0,51,0.00,,,0.00,meteohub,2013-02-12 13:57:00,
2013-02-12 07:02:00,14.5,-1.1,30.23,SW,230,3.0,6.0,49,0.00,,,0.00,meteohub,2013-02-12 14:02:00,
2013-02-12 07:07:00,15.4,-1.7,30.23,SW,226,3.0,6.0,46,0.00,,,0.00,meteohub,2013-02-12 14:07:00,
2013-02-12 07:12:00,16.2,-1.5,30.23,SW,226,3.0,7.0,45,0.00,,,0.00,meteohub,2013-02-12 14:12:00,
2013-02-12 07:17:00,16.5,-1.1,30.24,SW,226,1.0,7.0,45,0.00,,,0.00,meteohub,2013-02-12 14:17:00,
2013-02-12 07:22:00,16.9,-0.8,30.24,SW,226,0.0,6.0,45,0.00,,,0.00,meteohub,2013-02-12 14:22:00,
2013-02-12 07:27:00,16.9,-0.4,30.24,SW,226,0.0,4.0,46,0.00,,,0.00,meteohub,2013-02-12 14:27:00,
2013-02-12 07:32:00,16.9,0.1,30.24,SW,226,0.0,4.0,47,0.00,,,0.00,meteohub,2013-02-12 14:32:00,
2013-02-12 07:37:00,16.7,1.2,30.24,SW,226,0.0,2.0,50,0.00,,,0.00,meteohub,2013-02-12 14:37:00,
2013-02-12 07:42:00,16.5,1.6,30.24,SW,226,0.0,1.0,51,0.00,,,0.00,meteohub,2013-02-12 14:42:00,
2013-02-12 07:47:00,16.3,2.1,30.24,SW,226,0.0,1.0,53,0.00,,,0.00,meteohub,2013-02-12 14:47:00,
2013-02-12 07:52:00,16.3,2.7,30.24,SW,226,2.0,0.0,54,0.00,,,0.00,meteohub,2013-02-12 14:52:00,
2013-02-12 07:57:00,16.3,2.7,30.25,SW,226,2.0,2.0,54,0.00,,,0.00,meteohub,2013-02-12 14:57:00,
2013-02-12 08:02:00,16.7,3.0,30.24,North,-999,-999.0,2.0,54,0.00,,,0.00,meteohub,2013-02-12 15:02:00,
2013-02-12 08:07:00,16.9,2.7,30.24,SW,226,0.0,2.0,53,0.00,,,0.00,meteohub,2013-02-12 15:07:00,
2013-02-12 08:12:00,17.2,2.7,30.24,SW,226,0.0,2.0,52,0.00,,,0.00,meteohub,2013-02-12 15:12:00,
2013-02-12 08:17:00,17.4,2.3,30.24,SW,226,0.0,0.0,51,0.00,,,0.00,meteohub,2013-02-12 15:17:00,
2013-02-12 08:22:00,17.8,2.7,30.25,SW,226,0.0,1.0,51,0.00,,,0.00,meteohub,2013-02-12 15:22:00,
2013-02-12 08:27:00,18.3,3.2,30.25,SW,226,0.0,1.0,51,0.00,,,0.00,meteohub,2013-02-12 15:27:00,
2013-02-12 08:32:00,18.9,3.7,30.24,SW,226,0.0,1.0,51,0.00,,,0.00,meteohub,2013-02-12 15:32:00,
2013-02-12 08:37:00,19.6,3.9,30.24,SW,226,0.0,1.0,50,0.00,,,0.00,meteohub,2013-02-12 15:37:00,
2013-02-12 08:42:00,19.9,4.3,30.24,SW,226,0.0,1.0,50,0.00,,,0.00,meteohub,2013-02-12 15:42:00,
2013-02-12 08:47:00,20.7,5.4,30.24,SW,226,0.0,0.0,51,0.00,,,0.00,meteohub,2013-02-12 15:47:00,
2013-02-12 08:52:00,22.5,3.4,30.24,SW,226,1.0,1.0,43,0.00,,,0.00,meteohub,2013-02-12 15:52:00,
2013-02-12 08:57:00,24.8,2.8,30.25,SW,226,2.0,2.0,38,0.00,,,0.00,meteohub,2013-02-12 15:57:00,
2013-02-12 09:02:00,26.4,1.2,30.24,SW,226,2.0,3.0,33,0.00,,,0.00,meteohub,2013-02-12 16:02:00,
2013-02-12 09:07:00,27.5,2.8,30.24,SW,226,2.0,3.0,34,0.00,,,0.00,meteohub,2013-02-12 16:07:00,
2013-02-12 09:12:00,28.8,-0.2,30.24,SW,226,1.0,3.0,28,0.00,,,0.00,meteohub,2013-02-12 16:12:00,
2013-02-12 09:17:00,30.0,0.1,30.24,ESE,111,2.0,3.0,27,0.00,,,0.00,meteohub,2013-02-12 16:17:00,
2013-02-12 09:22:00,31.8,1.6,30.24,ESE,111,4.0,5.0,27,0.00,,,0.00,meteohub,2013-02-12 16:22:00,
2013-02-12 09:27:00,32.5,0.7,30.23,East,88,2.0,5.0,25,0.00,,,0.00,meteohub,2013-02-12 16:27:00,
2013-02-12 09:32:00,33.3,1.2,30.23,East,88,3.0,5.0,25,0.00,,,0.00,meteohub,2013-02-12 16:32:00,
2013-02-12 09:42:00,34.2,0.1,30.24,East,89,2.0,4.0,23,0.00,,,0.00,meteohub,2013-02-12 16:42:00,
2013-02-12 09:47:00,34.7,-2.4,30.23,East,89,1.0,4.0,20,0.00,,,0.00,meteohub,2013-02-12 16:47:00,
2013-02-12 09:52:00,35.2,0.1,30.23,East,88,2.0,4.0,22,0.00,,,0.00,meteohub,2013-02-12 16:52:00,
2013-02-12 09:57:00,35.4,-0.6,30.23,ENE,78,2.0,4.0,21,0.00,,,0.00,meteohub,2013-02-12 16:57:00,
2013-02-12 10:02:00,35.8,-1.3,30.23,ENE,78,2.0,4.0,20,0.00,,,0.00,meteohub,2013-02-12 17:02:00,
2013-02-12 10:07:00,36.1,-1.1,30.23,NE,40,1.0,5.0,20,0.00,,,0.00,meteohub,2013-02-12 17:07:00,
2013-02-12 10:12:00,36.3,-0.9,30.23,NE,40,1.0,5.0,20,0.00,,,0.00,meteohub,2013-02-12 17:12:00,
2013-02-12 10:17:00,36.5,-1.8,30.23,East,83,1.0,5.0,19,0.00,,,0.00,meteohub,2013-02-12 17:17:00,
2013-02-12 10:22:00,36.9,-0.4,30.23,East,83,2.0,5.0,20,0.00,,,0.00,meteohub,2013-02-12 17:22:00,
2013-02-12 10:27:00,36.9,-2.7,30.23,NNE,31,5.0,5.0,18,0.00,,,0.00,meteohub,2013-02-12 17:27:00,
2013-02-12 10:32:00,36.9,-2.7,30.23,NE,43,1.0,5.0,18,0.00,,,0.00,meteohub,2013-02-12 17:32:00,
2013-02-12 10:37:00,37.2,-4.9,30.23,NE,43,2.0,5.0,16,0.00,,,0.00,meteohub,2013-02-12 17:37:00,
2013-02-12 10:42:00,37.6,-3.3,30.23,NE,34,1.0,5.0,17,0.00,,,0.00,meteohub,2013-02-12 17:42:00,
2013-02-12 10:47:00,37.9,-1.8,30.23,NE,34,4.0,5.0,18,0.00,,,0.00,meteohub,2013-02-12 17:47:00,
2013-02-12 10:52:00,37.9,-4.4,30.23,East,91,6.0,7.0,16,0.00,,,0.00,meteohub,2013-02-12 17:52:00,
2013-02-12 10:57:00,37.8,-3.1,30.23,ESE,113,5.0,7.0,17,0.00,,,0.00,meteohub,2013-02-12 17:57:00,
2013-02-12 11:02:00,37.6,-2.2,30.23,ENE,73,4.0,7.0,18,0.00,,,0.00,meteohub,2013-02-12 18:02:00,
2013-02-12 11:07:00,37.6,-4.5,30.23,NE,51,3.0,8.0,16,0.00,,,0.00,meteohub,2013-02-12 18:07:00,
2013-02-12 11:12:00,37.6,-6.0,30.23,East,81,1.0,10.0,15,0.00,,,0.00,meteohub,2013-02-12 18:12:00,
2013-02-12 11:17:00,37.6,-6.0,30.23,ENE,68,2.0,10.0,15,0.00,,,0.00,meteohub,2013-02-12 18:17:00,
2013-02-12 11:22:00,37.6,-4.5,30.23,ESE,119,5.0,7.0,16,0.00,,,0.00,meteohub,2013-02-12 18:22:00,
2013-02-12 11:27:00,37.8,-5.8,30.23,ESE,119,2.0,5.0,15,0.00,,,0.00,meteohub,2013-02-12 18:27:00,
2013-02-12 11:32:00,38.3,-4.0,30.23,East,95,1.0,6.0,16,0.00,,,0.00,meteohub,2013-02-12 18:32:00,
2013-02-12 11:37:00,38.8,-3.5,30.22,ENE,76,2.0,6.0,16,0.00,,,0.00,meteohub,2013-02-12 18:37:00,
2013-02-12 11:42:00,38.8,-4.9,30.22,NNE,15,3.0,7.0,15,0.00,,,0.00,meteohub,2013-02-12 18:42:00,
2013-02-12 11:47:00,39.4,-3.1,30.22,NNE,30,3.0,7.0,16,0.00,,,0.00,meteohub,2013-02-12 18:47:00,
2013-02-12 11:52:00,39.0,-6.2,30.22,ESE,117,4.0,7.0,14,0.00,,,0.00,meteohub,2013-02-12 18:52:00,
2013-02-12 11:57:00,39.0,-4.7,30.21,ESE,113,4.0,7.0,15,0.00,,,0.00,meteohub,2013-02-12 18:57:00,
2013-02-12 12:02:00,38.8,-6.3,30.21,ESE,113,2.0,7.0,14,0.00,,,0.00,meteohub,2013-02-12 19:02:00,
2013-02-12 12:07:00,39.4,-4.5,30.21,ENE,62,2.0,7.0,15,0.00,,,0.00,meteohub,2013-02-12 19:07:00,
2013-02-12 12:12:00,39.2,-7.6,30.21,East,80,3.0,9.0,13,0.00,,,0.00,meteohub,2013-02-12 19:12:00,
2013-02-12 12:17:00,39.6,-4.4,30.21,ENE,68,3.0,9.0,15,0.00,,,0.00,meteohub,2013-02-12 19:17:00,
2013-02-12 12:22:00,39.7,-5.6,30.21,NNE,27,2.0,10.0,14,0.00,,,0.00,meteohub,2013-02-12 19:22:00,
2013-02-12 12:27:00,40.1,-5.3,30.21,NNE,24,5.0,10.0,14,0.00,,,0.00,meteohub,2013-02-12 19:27:00,
2013-02-12 12:32:00,40.3,-5.1,30.20,ENE,57,3.0,8.0,14,0.00,,,0.00,meteohub,2013-02-12 19:32:00,
2013-02-12 12:37:00,40.1,-8.5,30.20,ESE,112,2.0,8.0,12,0.00,,,0.00,meteohub,2013-02-12 19:37:00,
2013-02-12 12:42:00,40.3,-8.3,30.20,NE,52,3.0,8.0,12,0.00,,,0.00,meteohub,2013-02-12 19:42:00,
2013-02-12 12:47:00,40.1,-8.5,30.20,ESE,103,0.0,7.0,12,0.00,,,0.00,meteohub,2013-02-12 19:47:00,
2013-02-12 12:52:00,39.9,-8.7,30.19,East,90,6.0,12.0,12,0.00,,,0.00,meteohub,2013-02-12 19:52:00,
2013-02-12 12:57:00,39.9,-10.3,30.19,ESE,115,4.0,12.0,11,0.00,,,0.00,meteohub,2013-02-12 19:57:00,
2013-02-12 13:02:00,40.1,-10.3,30.19,NE,49,0.0,11.0,11,0.00,,,0.00,meteohub,2013-02-12 20:02:00,
2013-02-12 13:07:00,40.3,-10.1,30.19,NNE,31,3.0,9.0,11,0.00,,,0.00,meteohub,2013-02-12 20:07:00,
2013-02-12 13:12:00,40.1,-10.3,30.19,ESE,122,0.0,8.0,11,0.00,,,0.00,meteohub,2013-02-12 20:12:00,
2013-02-12 13:17:00,40.6,-8.0,30.19,NNE,31,2.0,8.0,12,0.00,,,0.00,meteohub,2013-02-12 20:17:00,
2013-02-12 13:22:00,40.8,-8.0,30.18,NE,46,1.0,6.0,12,0.00,,,0.00,meteohub,2013-02-12 20:22:00,
2013-02-12 13:27:00,41.4,-9.2,30.18,NE,53,6.0,6.0,11,0.00,,,0.00,meteohub,2013-02-12 20:27:00,
2013-02-12 13:32:00,41.5,-9.0,30.18,NNE,30,6.0,7.0,11,0.00,,,0.00,meteohub,2013-02-12 20:32:00,
2013-02-12 13:37:00,41.7,-9.0,30.18,NNW,348,6.0,11.0,11,0.00,,,0.00,meteohub,2013-02-12 20:37:00,
2013-02-12 13:42:00,41.7,-9.0,30.18,NE,55,6.0,11.0,11,0.00,,,0.00,meteohub,2013-02-12 20:42:00,
2013-02-12 13:47:00,41.5,-7.4,30.18,NE,56,2.0,11.0,12,0.00,,,0.00,meteohub,2013-02-12 20:47:00,
2013-02-12 13:52:00,41.2,-9.4,30.17,NE,55,3.0,11.0,11,0.00,,,0.00,meteohub,2013-02-12 20:52:00,
2013-02-12 13:57:00,41.5,-9.0,30.17,East,86,7.0,10.0,11,0.00,,,0.00,meteohub,2013-02-12 20:57:00,
2013-02-12 14:02:00,41.2,-7.6,30.17,ESE,107,7.0,11.0,12,0.00,,,0.00,meteohub,2013-02-12 21:02:00,
2013-02-12 14:07:00,40.3,-10.1,30.17,SE,130,5.0,11.0,11,0.00,,,0.00,meteohub,2013-02-12 21:07:00,
2013-02-12 14:12:00,40.8,-8.0,30.17,SE,126,2.0,11.0,12,0.00,,,0.00,meteohub,2013-02-12 21:12:00,
2013-02-12 14:17:00,41.2,-7.6,30.17,SE,126,0.0,11.0,12,0.00,,,0.00,meteohub,2013-02-12 21:17:00,
2013-02-12 14:22:00,41.2,-9.4,30.17,ESE,108,2.0,11.0,11,0.00,,,0.00,meteohub,2013-02-12 21:22:00,
2013-02-12 14:27:00,41.4,-7.4,30.17,ENE,76,1.0,6.0,12,0.00,,,0.00,meteohub,2013-02-12 21:27:00,
2013-02-12 14:32:00,41.4,-7.4,30.17,NE,42,4.0,7.0,12,0.00,,,0.00,meteohub,2013-02-12 21:32:00,
2013-02-12 14:37:00,41.5,-9.0,30.16,NNE,20,5.0,7.0,11,0.00,,,0.00,meteohub,2013-02-12 21:37:00,
2013-02-12 14:42:00,41.4,-7.4,30.16,NNE,24,4.0,7.0,12,0.00,,,0.00,meteohub,2013-02-12 21:42:00,
2013-02-12 14:47:00,41.4,-7.4,30.16,North,11,3.0,11.0,12,0.00,,,0.00,meteohub,2013-02-12 21:47:00,
2013-02-12 14:52:00,41.2,-9.4,30.16,NNW,341,2.0,11.0,11,0.00,,,0.00,meteohub,2013-02-12 21:52:00,
2013-02-12 14:57:00,41.4,-7.4,30.16,SE,138,0.0,8.0,12,0.00,,,0.00,meteohub,2013-02-12 21:57:00,
2013-02-12 15:02:00,41.2,-9.4,30.16,East,79,4.0,7.0,11,0.00,,,0.00,meteohub,2013-02-12 22:02:00,
2013-02-12 15:07:00,40.8,-9.8,30.16,East,81,3.0,9.0,11,0.00,,,0.00,meteohub,2013-02-12 22:07:00,
2013-02-12 15:12:00,40.8,-9.8,30.16,ESE,115,8.0,9.0,11,0.00,,,0.00,meteohub,2013-02-12 22:12:00,
2013-02-12 15:22:00,40.5,-9.9,30.17,East,86,1.0,12.0,11,0.00,,,0.00,meteohub,2013-02-12 22:22:00,
2013-02-12 15:27:00,40.5,-8.1,30.17,NNE,30,5.0,12.0,12,0.00,,,0.00,meteohub,2013-02-12 22:27:00,
2013-02-12 15:32:00,40.8,-9.8,30.17,NNE,24,2.0,8.0,11,0.00,,,0.00,meteohub,2013-02-12 22:32:00,
2013-02-12 15:37:00,41.2,-7.6,30.17,NNE,20,3.0,7.0,12,0.00,,,0.00,meteohub,2013-02-12 22:37:00,
2013-02-12 15:42:00,41.2,-9.4,30.16,ENE,57,1.0,7.0,11,0.00,,,0.00,meteohub,2013-02-12 22:42:00,
2013-02-12 15:47:00,40.8,-9.8,30.16,ENE,58,2.0,5.0,11,0.00,,,0.00,meteohub,2013-02-12 22:47:00,
2013-02-12 15:52:00,40.6,-9.8,30.17,ENE,63,1.0,5.0,11,0.00,,,0.00,meteohub,2013-02-12 22:52:00,
2013-02-12 15:57:00,40.5,-9.9,30.17,ENE,59,2.0,5.0,11,0.00,,,0.00,meteohub,2013-02-12 22:57:00,
2013-02-12 16:07:00,40.3,-10.1,30.17,SE,139,4.0,5.0,11,0.00,,,0.00,meteohub,2013-02-12 23:07:00,
2013-02-12 16:12:00,40.6,-9.8,30.16,ESE,107,5.0,8.0,11,0.00,,,0.00,meteohub,2013-02-12 23:12:00,
2013-02-12 16:17:00,40.6,-9.8,30.17,ESE,105,0.0,8.0,11,0.00,,,0.00,meteohub,2013-02-12 23:17:00,
2013-02-12 16:22:00,40.8,-9.8,30.17,ESE,105,0.0,8.0,11,0.00,,,0.00,meteohub,2013-02-12 23:22:00,
2013-02-12 16:27:00,41.2,-9.4,30.16,ESE,105,0.0,6.0,11,0.00,,,0.00,meteohub,2013-02-12 23:27:00,
2013-02-12 16:32:00,40.6,-9.8,30.17,ESE,105,0.0,5.0,11,0.00,,,0.00,meteohub,2013-02-12 23:32:00,
2013-02-12 16:37:00,40.5,-9.9,30.16,ESE,103,1.0,5.0,11,0.00,,,0.00,meteohub,2013-02-12 23:37:00,
2013-02-12 16:42:00,39.9,-8.7,30.16,South,188,2.0,7.0,12,0.00,,,0.00,meteohub,2013-02-12 23:42:00,
2013-02-12 16:47:00,39.4,-9.0,30.16,SE,128,2.0,7.0,12,0.00,,,0.00,meteohub,2013-02-12 23:47:00,
2013-02-12 16:52:00,39.0,-9.4,30.16,ESE,115,1.0,7.0,12,0.00,,,0.00,meteohub,2013-02-12 23:52:00,
2013-02-12 16:57:00,38.8,-9.4,30.16,ESE,115,2.0,6.0,12,0.00,,,0.00,meteohub,2013-02-12 23:57:00,
2013-02-12 17:02:00,38.5,-9.8,30.16,ESE,115,0.0,6.0,12,0.00,,,0.00,meteohub,2013-02-13 00:02:00,
2013-02-12 17:07:00,38.1,-8.5,30.16,ESE,115,1.0,5.0,13,0.00,,,0.00,meteohub,2013-02-13 00:07:00,
2013-02-12 17:12:00,37.9,-8.5,30.16,ESE,115,0.0,4.0,13,0.00,,,0.00,meteohub,2013-02-13 00:12:00,
2013-02-12 17:17:00,37.6,-3.3,30.16,South,188,2.0,4.0,17,0.00,,,0.00,meteohub,2013-02-13 00:17:00,
2013-02-12 17:22:00,37.2,-1.3,30.16,SW,219,5.0,5.0,19,0.00,,,0.00,meteohub,2013-02-13 00:22:00,
2013-02-12 17:27:00,36.9,-0.4,30.16,SW,229,0.0,6.0,20,0.00,,,0.00,meteohub,2013-02-13 00:27:00,
2013-02-12 17:32:00,36.3,0.1,30.16,SW,229,3.0,6.0,21,0.00,,,0.00,meteohub,2013-02-13 00:32:00,
2013-02-12 17:42:00,35.2,0.1,30.16,SW,229,2.0,4.0,22,0.00,,,0.00,meteohub,2013-02-13 00:42:00,
2013-02-12 17:47:00,34.7,0.7,30.17,SW,230,4.0,5.0,23,0.00,,,0.00,meteohub,2013-02-13 00:47:00,
2013-02-12 17:52:00,34.3,1.2,30.16,SW,222,2.0,6.0,24,0.00,,,0.00,meteohub,2013-02-13 00:52:00,
2013-02-12 17:57:00,33.8,1.8,30.16,SW,233,4.0,6.0,25,0.00,,,0.00,meteohub,2013-02-13 00:57:00,
2013-02-12 18:02:00,33.4,1.4,30.16,SW,233,1.0,6.0,25,0.00,,,0.00,meteohub,2013-02-13 01:02:00,
2013-02-12 18:07:00,33.1,1.9,30.17,SW,233,2.0,6.0,26,0.00,,,0.00,meteohub,2013-02-13 01:07:00,
2013-02-12 18:12:00,32.7,2.5,30.17,SW,233,4.0,6.0,27,0.00,,,0.00,meteohub,2013-02-13 01:12:00,
2013-02-12 18:17:00,32.2,1.9,30.17,WSW,248,3.0,6.0,27,0.00,,,0.00,meteohub,2013-02-13 01:17:00,
2013-02-12 18:22:00,31.8,1.6,30.16,WSW,248,0.0,6.0,27,0.00,,,0.00,meteohub,2013-02-13 01:22:00,
2013-02-12 18:27:00,31.6,1.4,30.16,WSW,248,1.0,6.0,27,0.00,,,0.00,meteohub,2013-02-13 01:27:00,
2013-02-12 18:32:00,31.3,1.2,30.16,West,259,4.0,4.0,27,0.00,,,0.00,meteohub,2013-02-13 01:32:00,
2013-02-12 18:37:00,31.3,1.2,30.16,West,273,4.0,8.0,27,0.00,,,0.00,meteohub,2013-02-13 01:37:00,
2013-02-12 18:42:00,31.3,0.3,30.16,WSW,256,5.0,10.0,26,0.00,,,0.00,meteohub,2013-02-13 01:42:00,
2013-02-12 18:47:00,31.3,0.3,30.16,West,261,5.0,10.0,26,0.00,,,0.00,meteohub,2013-02-13 01:47:00,
2013-02-12 18:52:00,31.6,0.7,30.16,West,275,5.0,10.0,26,0.00,,,0.00,meteohub,2013-02-13 01:52:00,
2013-02-12 18:57:00,31.6,1.4,30.16,West,275,5.0,10.0,27,0.00,,,0.00,meteohub,2013-02-13 01:57:00,
2013-02-12 19:02:00,31.8,1.6,30.16,WSW,254,2.0,9.0,27,0.00,,,0.00,meteohub,2013-02-13 02:02:00,
2013-02-12 19:07:00,31.8,0.9,30.17,SW,223,3.0,6.0,26,0.00,,,0.00,meteohub,2013-02-13 02:07:00,
2013-02-12 19:12:00,31.8,0.9,30.17,WSW,242,3.0,6.0,26,0.00,,,0.00,meteohub,2013-02-13 02:12:00,
2013-02-12 19:17:00,31.8,1.6,30.17,WSW,242,7.0,7.0,27,0.00,,,0.00,meteohub,2013-02-13 02:17:00,
2013-02-12 19:22:00,31.8,0.9,30.16,SW,236,3.0,9.0,26,0.00,,,0.00,meteohub,2013-02-13 02:22:00,
2013-02-12 19:27:00,31.8,1.6,30.17,WSW,237,1.0,9.0,27,0.00,,,0.00,meteohub,2013-02-13 02:27:00,
2013-02-12 19:32:00,31.8,1.6,30.16,WSW,237,2.0,9.0,27,0.00,,,0.00,meteohub,2013-02-13 02:32:00,
2013-02-12 19:37:00,31.8,1.6,30.16,WSW,237,0.0,5.0,27,0.00,,,0.00,meteohub,2013-02-13 02:37:00,
2013-02-12 19:42:00,31.5,1.4,30.16,WSW,237,0.0,5.0,27,0.00,,,0.00,meteohub,2013-02-13 02:42:00,
2013-02-12 19:47:00,31.3,1.9,30.16,WSW,237,2.0,5.0,28,0.00,,,0.00,meteohub,2013-02-13 02:47:00,
2013-02-12 19:52:00,30.9,0.9,30.15,WSW,237,1.0,2.0,27,0.00,,,0.00,meteohub,2013-02-13 02:52:00,
2013-02-12 19:57:00,30.6,1.4,30.15,WSW,242,6.0,6.0,28,0.00,,,0.00,meteohub,2013-02-13 02:57:00,
2013-02-12 20:02:00,30.4,1.2,30.16,WNW,296,3.0,8.0,28,0.00,,,0.00,meteohub,2013-02-13 03:02:00,
2013-02-12 20:07:00,30.4,0.3,30.16,WNW,296,2.0,8.0,27,0.00,,,0.00,meteohub,2013-02-13 03:07:00,
2013-02-12 20:12:00,30.4,0.3,30.16,West,273,9.0,11.0,27,0.00,,,0.00,meteohub,2013-02-13 03:12:00,
2013-02-12 20:17:00,30.6,1.4,30.16,WNW,299,4.0,14.0,28,0.00,,,0.00,meteohub,2013-02-13 03:17:00,
2013-02-12 20:22:00,30.9,1.6,30.16,WNW,301,5.0,14.0,28,0.00,,,0.00,meteohub,2013-02-13 03:22:00,
2013-02-12 20:27:00,30.9,0.9,30.16,West,277,2.0,14.0,27,0.00,,,0.00,meteohub,2013-02-13 03:27:00,
2013-02-12 20:32:00,31.3,1.2,30.15,WNW,287,3.0,10.0,27,0.00,,,0.00,meteohub,2013-02-13 03:32:00,
2013-02-12 20:37:00,31.3,1.2,30.16,SW,219,8.0,10.0,27,0.00,,,0.00,meteohub,2013-02-13 03:37:00,
2013-02-12 20:42:00,31.5,1.4,30.16,WSW,256,5.0,11.0,27,0.00,,,0.00,meteohub,2013-02-13 03:42:00,
2013-02-12 20:47:00,31.8,1.6,30.15,NW,319,3.0,12.0,27,0.00,,,0.00,meteohub,2013-02-13 03:47:00,
2013-02-12 20:52:00,31.8,1.6,30.16,West,280,11.0,12.0,27,0.00,,,0.00,meteohub,2013-02-13 03:52:00,
2013-02-12 20:57:00,32.2,2.7,30.15,West,277,6.0,14.0,28,0.00,,,0.00,meteohub,2013-02-13 03:57:00,
2013-02-12 21:02:00,32.2,1.9,30.15,WSW,257,10.0,15.0,27,0.00,,,0.00,meteohub,2013-02-13 04:02:00,
2013-02-12 21:07:00,32.5,2.3,30.15,West,263,8.0,15.0,27,0.00,,,0.00,meteohub,2013-02-13 04:07:00,
2013-02-12 21:12:00,32.7,2.5,30.15,West,268,7.0,15.0,27,0.00,,,0.00,meteohub,2013-02-13 04:12:00,
2013-02-12 21:17:00,32.7,2.5,30.15,West,269,7.0,17.0,27,0.00,,,0.00,meteohub,2013-02-13 04:17:00,
2013-02-12 21:22:00,32.7,2.5,30.15,West,259,9.0,17.0,27,0.00,,,0.00,meteohub,2013-02-13 04:22:00,
2013-02-12 21:27:00,32.7,2.5,30.14,West,275,5.0,17.0,27,0.00,,,0.00,meteohub,2013-02-13 04:27:00,
2013-02-12 21:32:00,32.7,2.5,30.14,West,263,15.0,21.0,27,0.00,,,0.00,meteohub,2013-02-13 04:32:00,
2013-02-12 21:37:00,32.7,3.2,30.14,NNE,13,5.0,21.0,28,0.00,,,0.00,meteohub,2013-02-13 04:37:00,
2013-02-12 21:42:00,32.7,2.5,30.15,NE,41,3.0,19.0,27,0.00,,,0.00,meteohub,2013-02-13 04:42:00,
2013-02-12 21:47:00,32.2,2.7,30.15,NE,42,4.0,15.0,28,0.00,,,0.00,meteohub,2013-02-13 04:47:00,
2013-02-12 21:52:00,31.5,1.4,30.15,ENE,69,2.0,13.0,27,0.00,,,0.00,meteohub,2013-02-13 04:52:00,
2013-02-12 21:57:00,30.9,1.6,30.15,ENE,77,4.0,6.0,28,0.00,,,0.00,meteohub,2013-02-13 04:57:00,
2013-02-12 22:02:00,30.6,1.4,30.15,ENE,78,4.0,6.0,28,0.00,,,0.00,meteohub,2013-02-13 05:02:00,
2013-02-12 22:07:00,30.4,1.9,30.14,ENE,78,2.0,6.0,29,0.00,,,0.00,meteohub,2013-02-13 05:07:00,
2013-02-12 22:12:00,30.0,1.6,30.15,ENE,78,3.0,6.0,29,0.00,,,0.00,meteohub,2013-02-13 05:12:00,
2013-02-12 22:17:00,30.0,2.3,30.14,ENE,78,3.0,5.0,30,0.00,,,0.00,meteohub,2013-02-13 05:17:00,
2013-02-12 22:22:00,29.8,2.1,30.15,South,169,2.0,5.0,30,0.00,,,0.00,meteohub,2013-02-13 05:22:00,
2013-02-12 22:27:00,29.5,2.5,30.15,East,80,0.0,6.0,31,0.00,,,0.00,meteohub,2013-02-13 05:27:00,
2013-02-12 22:32:00,29.3,2.5,30.14,East,80,4.0,6.0,31,0.00,,,0.00,meteohub,2013-02-13 05:32:00,
2013-02-12 22:37:00,29.1,2.3,30.14,East,80,3.0,6.0,31,0.00,,,0.00,meteohub,2013-02-13 05:37:00,
2013-02-12 22:42:00,28.8,2.7,30.14,East,80,0.0,5.0,32,0.00,,,0.00,meteohub,2013-02-13 05:42:00,
2013-02-12 22:47:00,28.4,2.3,30.14,East,80,0.0,5.0,32,0.00,,,0.00,meteohub,2013-02-13 05:47:00,
2013-02-12 22:52:00,28.2,2.8,30.14,East,80,1.0,3.0,33,0.00,,,0.00,meteohub,2013-02-13 05:52:00,
2013-02-12 22:57:00,28.2,2.8,30.14,East,80,0.0,4.0,33,0.00,,,0.00,meteohub,2013-02-13 05:57:00,
2013-02-12 23:02:00,28.4,3.6,30.14,East,80,4.0,4.0,34,0.00,,,0.00,meteohub,2013-02-13 06:02:00,
2013-02-12 23:07:00,28.6,3.7,30.14,ENE,76,3.0,5.0,34,0.00,,,0.00,meteohub,2013-02-13 06:07:00,
2013-02-12 23:17:00,29.3,3.7,30.14,ENE,59,3.0,6.0,33,0.00,,,0.00,meteohub,2013-02-13 06:17:00,
2013-02-12 23:22:00,29.7,4.1,30.13,ESE,106,1.0,7.0,33,0.00,,,0.00,meteohub,2013-02-13 06:22:00,
2013-02-12 23:27:00,29.5,3.9,30.14,East,84,2.0,8.0,33,0.00,,,0.00,meteohub,2013-02-13 06:27:00,
2013-02-12 23:32:00,29.8,3.6,30.13,South,178,5.0,8.0,32,0.00,,,0.00,meteohub,2013-02-13 06:32:00,
2013-02-12 23:42:00,30.4,3.4,30.14,SW,215,2.0,8.0,31,0.00,,,0.00,meteohub,2013-02-13 06:42:00,
2013-02-12 23:47:00,30.7,3.7,30.14,SW,216,2.0,7.0,31,0.00,,,0.00,meteohub,2013-02-13 06:47:00,
2013-02-12 23:52:00,30.6,4.3,30.15,SW,216,0.0,7.0,32,0.00,,,0.00,meteohub,2013-02-13 06:52:00,
2013-02-12 23:57:00,30.0,4.5,30.14,SW,216,0.0,4.0,33,0.00,,,0.00,meteohub,2013-02-13 06:57:00,